[[{"header":{"parameterUnit":"m.s-1","parameterCategory":1,"la1":30.2991,"la2":30.254,"lo1":-89.0895,"lo2":-89.0444,"dy":0.0017,"dx":0.0017,"nx":28,"ny":28,"refTime":"2024-08-30T21:00:00:Z","depth":0,"parameterNumber":2,"parameterNumberName":"U-component_of_WINDS"},"data":[0,0,0,0,0,0,0,0,0,0,0,0,0,0,0,0,0,0,0,0,0,0,0,0,0,0,0,0,0,0,0,0,0,0,0,0,0,0,0,0,0,0,0,0,0,0,0,0,0,0,0,0,0,0,0,0,0,0,-4.6189,-4.6188,0,-4.6135,-4.6135,-4.6134,-4.6014,-4.6012,-4.6009,-4.6007,-4.5956,-4.5957,-4.5958,0,0,0,0,0,0,0,0,0,0,0,0,0,-4.6193,-4.6193,-4.6189,-4.6188,-4.6187,-4.6135,-4.6135,-4.6134,-4.6015,-4.6012,-4.6009,-4.6006,-4.5956,-4.5957,-4.5958,0,0,0,0,0,0,0,0,0,0,0,0,0,-4.617,-4.6193,-4.6189,-4.6122,-4.6115,-4.6135,-4.6134,-4.6134,-4.6015,-4.6012,-4.6008,-4.6005,-4.5956,-4.5957,-4.5958,-4.6041,0,0,-4.5963,-4.5963,0,0,0,0,0,0,0,0,-4.6172,-4.617,-4.6132,-4.6126,-4.6119,-4.6078,-4.6117,-4.6103,-4.6016,-4.6053,-4.6007,-4.6003,-4.6,-4.5997,-4.5996,-4.6039,-4.6036,-4.5963,-4.5964,-4.5964,-4.5965,0,0,0,0,0,0,0,-4.6174,-4.6172,-4.6168,-4.6132,-4.6124,-4.6096,-4.6088,-4.6114,-4.6048,-4.605,-4.6041,-4.6036,-4.5996,-4.5995,-4.5994,-4.6036,-4.5963,-4.5964,-4.5965,-4.5965,-4.6144,-4.6148,0,0,0,0,0,0,-4.6184,-4.6174,-4.6169,-4.6166,-4.6137,-4.6099,-4.6091,-4.6095,-4.6048,-4.6037,-4.6039,-4.6031,-4.5994,-4.5992,-4.5991,-4.6084,-4.5964,-4.5966,-4.5966,-4.614,-4.6145,-4.6149,0,0,0,0,0,0,-4.6185,-4.6185,-4.6171,-4.6168,-4.6164,-4.6102,-4.6108,-4.6096,-4.6094,-4.6039,-4.6028,-4.605,-4.5991,-4.5989,-4.6029,-4.6081,-4.5966,-4.5968,-4.6136,-4.6142,-4.6147,-4.6271,0,0,0,0,0,0,-4.6185,-4.6186,-4.6215,-4.6169,-4.6164,-4.6209,-4.6111,-4.6097,-4.6096,-4.6085,-4.6046,-4.6036,-4.5988,-4.6028,-4.6031,-4.6081,-4.5969,-4.6131,-4.6138,-4.6145,-4.6262,-4.6281,-4.6297,0,0,0,0,0,-4.6186,-4.6253,-4.6217,-4.6217,-4.62,-4.6212,-4.621,-4.6151,-4.6101,-4.6131,-4.6096,-4.6038,-4.6075,-4.6033,-4.6035,-4.6086,-4.6127,-4.6136,-4.6145,-4.6255,-4.6277,-4.6296,0,0,0,0,0,0,-4.6308,-4.6246,-4.6205,-4.6259,-4.6242,-4.6192,-4.6227,-4.6177,-4.6174,-4.6164,-4.6093,-4.6085,-4.6135,-4.6115,-4.6069,-4.6164,-4.6092,-4.6102,-4.6175,-4.6196,-4.6213,-4.6215,-4.597,0,0,0,0,0,-4.6341,-4.6355,-4.6301,-4.6354,-4.6347,-4.629,-4.6293,-4.6249,-4.6229,-4.6221,-4.6189,-4.6173,-4.6181,-4.6187,-4.6192,-4.626,-4.625,-4.6296,-4.6314,-4.6328,-4.6336,-4.6371,-4.6391,-4.6178,-4.6178,-4.6178,0,0,-4.6409,-4.6377,-4.6391,-4.6377,-4.6358,-4.6376,-4.6284,-4.6306,-4.6318,-4.6225,-4.626,-4.6237,-4.6214,-4.6268,-4.629,-4.6253,-4.6394,-4.6339,-4.6351,-4.6351,-4.6382,-4.6402,-4.642,-4.6184,-4.6183,-4.6182,0,0,-4.6542,-4.652,-4.6561,-4.6545,-4.6517,-4.6479,-4.6489,-4.6447,-4.6428,-4.6462,-4.6392,-4.6407,-4.6422,-4.6409,-4.6404,-4.6535,-4.6481,-4.6539,-4.6627,-4.6662,-4.6679,-4.6693,-4.6739,-4.6756,-4.6548,-4.6548,-4.6549,0,-4.6631,-4.6653,-4.6589,-4.6616,-4.6612,-4.6528,-4.657,-4.6558,-4.6535,-4.6535,-4.6493,-4.6511,-4.649,-4.654,-4.6572,-4.6571,-4.6581,-4.6542,-4.6681,-4.6695,-4.6708,-4.6751,-4.6768,-4.6555,-4.6555,-4.6554,-4.6553,0,-4.6763,-4.678,-4.6817,-4.6795,-4.6796,-4.683,-4.6774,-4.6783,-4.6741,-4.6707,-4.6744,-4.6716,-4.6713,-4.6722,-4.6682,-4.6767,-4.6744,-4.6694,-4.6619,-4.6736,-4.6775,-4.6791,-4.6566,-4.6563,-4.6561,-4.6559,0,0,-4.6969,-4.6912,-4.6927,-4.6916,-4.6881,-4.6893,-4.6925,-4.6921,-4.693,-4.6918,-4.6943,-4.6959,-4.6911,-4.6906,-4.6864,-4.6895,-4.6999,-4.6839,-4.6838,-4.6869,-4.7092,-4.7129,-4.7149,-4.6965,-4.6968,-4.697,-4.7093,0,-4.7093,-4.7141,-4.7086,-4.7147,-4.7161,-4.7083,-4.7111,-4.7094,-4.7064,-4.7074,-4.7042,-4.7053,-4.699,-4.6987,-4.7014,-4.6981,-4.7043,-4.6972,-4.6987,-4.6989,-4.6993,-4.717,-4.7209,-4.7327,-4.7108,-4.7111,-4.7113,0,-4.7242,-4.7236,-4.7298,-4.7259,-4.7263,-4.7289,-4.7281,-4.7292,-4.7271,-4.7248,-4.7243,-4.7192,-4.7222,-4.7151,-4.7192,-4.7145,-4.7149,-4.7134,-4.7137,-4.7135,-4.7056,-4.7171,-4.7363,-4.738,-4.7136,-4.7135,-4.7133,0,-4.7385,-4.7392,-4.743,-4.7423,-4.7379,-4.7399,-4.7383,-4.7358,-4.736,-4.7355,-4.7355,-4.7354,-4.7353,-4.7355,-4.7305,-4.7258,-4.7352,-4.7278,-4.7334,-4.7335,-4.7355,-4.7354,-4.7549,-4.7361,-4.7361,-4.7361,-4.736,0,-4.7527,-4.7568,-4.7493,-4.7516,-4.756,-4.7498,-4.7544,-4.7519,-4.7499,-4.7517,-4.7451,-4.7469,-4.7404,-4.7416,-4.7378,-4.7418,-4.7418,-4.7401,-4.739,-4.7405,-4.7408,-4.7405,-4.7395,-4.7365,-4.7364,-4.7363,-4.7363,0,-4.7693,-4.7644,-4.768,-4.7636,-4.7626,-4.766,-4.7623,-4.7644,-4.7611,-4.7635,-4.7637,-4.7586,-4.7597,-4.7549,-4.7552,-4.7527,-4.7585,-4.7562,-4.7592,-4.7584,-4.7642,-4.7637,-4.7841,-4.7864,-4.7664,-4.7666,-4.7667,0,-4.7785,-4.7815,-4.7774,-4.7781,-4.7767,-4.7779,-4.778,-4.7722,-4.7726,-4.7706,-4.7729,-4.7735,-4.7736,-4.7758,-4.7722,-4.7725,-4.7699,-4.7771,-4.7699,-4.7714,-4.7699,-4.7697,-4.77,-4.7785,-4.7788,-4.779,-4.7791,0,-4.7956,-4.793,-4.7934,-4.793,-4.7933,-4.7927,-4.7917,-4.7927,-4.7863,-4.7872,-4.7882,-4.7883,-4.7887,-4.7893,-4.7889,-4.7873,-4.7822,-4.7815,-4.7827,-4.7843,-4.7858,-4.785,-4.763,-4.781,-4.7808,-4.7806,-4.7805,-4.7805,-4.8086,-4.8109,-4.8084,-4.809,-4.8076,-4.8069,-4.8086,-4.8055,-4.8062,-4.8059,-4.8025,-4.8042,-4.8022,-4.8011,-4.8,-4.8014,-4.798,-4.7999,-4.8004,-4.8009,-4.8018,-4.7858,-4.8013,-4.8012,-4.8012,-4.8011,-4.8011,0,-4.8252,-4.8232,-4.8239,-4.8226,-4.8232,-4.8184,-4.817,-4.8179,-4.8194,-4.8179,-4.8182,-4.8195,-4.8201,-4.8167,-4.8169,-4.8187,-4.8163,-4.8189,-4.8186,-4.8183,-4.8049,-4.8037,-4.8208,-4.8208,-4.8208,-4.8208,-4.8207,-4.8207,-4.8338,-4.8373,-4.8346,-4.8375,-4.8355,-4.837,-4.8367,-4.836,-4.8348,-4.8364,-4.8369,-4.8346,-4.8324,-4.8324,-4.8329,-4.8319,-4.8322,-4.8356,-4.8338,-4.8212,-4.8193,-4.8174,-4.8163,-4.8357,-4.8357,-4.847,-4.8471,-4.8472]},{"header":{"parameterUnit":"m.s-1","parameterCategory":1,"la1":30.2991,"la2":30.254,"lo1":-89.0895,"lo2":-89.0444,"dy":0.0017,"dx":0.0017,"nx":28,"ny":28,"refTime":"2024-08-30T21:00:00:Z","depth":0,"parameterNumber":3,"parameterNumberName":"V-component_of_WINDS"},"data":[0,0,0,0,0,0,0,0,0,0,0,0,0,0,0,0,0,0,0,0,0,0,0,0,0,0,0,0,0,0,0,0,0,0,0,0,0,0,0,0,0,0,0,0,0,0,0,0,0,0,0,0,0,0,0,0,0,0,0.4583,0.4583,0,0.4589,0.4589,0.4589,0.4603,0.4603,0.4603,0.4604,0.4609,0.4609,0.4609,0,0,0,0,0,0,0,0,0,0,0,0,0,0.4587,0.4586,0.4583,0.4583,0.4583,0.4589,0.4589,0.4589,0.4603,0.4603,0.4604,0.4604,0.4609,0.4609,0.4609,0,0,0,0,0,0,0,0,0,0,0,0,0,0.4588,0.4586,0.4583,0.4591,0.4592,0.4589,0.4589,0.4589,0.4603,0.4603,0.4604,0.4604,0.4609,0.4609,0.4609,0.4599,0,0,0.4608,0.4608,0,0,0,0,0,0,0,0,0.4588,0.4588,0.459,0.459,0.4591,0.4596,0.4592,0.4592,0.4603,0.4599,0.4604,0.4604,0.4604,0.4605,0.4605,0.4599,0.4599,0.4608,0.4608,0.4608,0.4608,0,0,0,0,0,0,0,0.4588,0.4588,0.4585,0.459,0.4591,0.4595,0.4595,0.4592,0.4599,0.4599,0.46,0.46,0.4605,0.4605,0.4605,0.4599,0.4608,0.4608,0.4608,0.4608,0.4587,0.4587,0,0,0,0,0,0,0.4586,0.4587,0.4585,0.4585,0.4591,0.4594,0.4595,0.4594,0.4599,0.46,0.46,0.4601,0.4605,0.4605,0.4605,0.4594,0.4608,0.4608,0.4608,0.4588,0.4587,0.4587,0,0,0,0,0,0,0.4586,0.4586,0.4585,0.4587,0.4587,0.4594,0.4592,0.4594,0.4593,0.46,0.4601,0.4599,0.4605,0.4605,0.46,0.4594,0.4608,0.4608,0.4588,0.4588,0.4587,0.4572,0,0,0,0,0,0,0.4586,0.4586,0.4581,0.4587,0.4587,0.458,0.4592,0.4593,0.4593,0.4594,0.4599,0.46,0.4606,0.4601,0.46,0.4594,0.4607,0.4589,0.4588,0.4587,0.4573,0.457,0.4569,0,0,0,0,0,0.4586,0.4576,0.4581,0.4581,0.4581,0.4579,0.4579,0.4586,0.4592,0.4588,0.4593,0.46,0.4596,0.46,0.46,0.4594,0.4589,0.4588,0.4587,0.4573,0.4571,0.4569,0,0,0,0,0,0,0.457,0.4577,0.4582,0.4574,0.4576,0.4582,0.4576,0.4583,0.4583,0.4584,0.4593,0.4594,0.4588,0.4591,0.4596,0.4585,0.4594,0.4592,0.4583,0.4581,0.4579,0.4578,0.4607,0,0,0,0,0,0.4565,0.4563,0.4569,0.4561,0.4562,0.4569,0.4568,0.4574,0.4576,0.4577,0.4581,0.4584,0.4583,0.4582,0.4582,0.4574,0.4575,0.457,0.4568,0.4566,0.4565,0.4562,0.456,0.4584,0.4584,0.4584,0,0,0.4555,0.4559,0.4557,0.4558,0.456,0.4558,0.457,0.4566,0.4565,0.4577,0.4572,0.4576,0.4579,0.4573,0.457,0.4575,0.4559,0.4565,0.4563,0.4563,0.4561,0.4558,0.4556,0.4583,0.4583,0.4583,0,0,0.4536,0.4539,0.4532,0.4535,0.4539,0.4544,0.4543,0.4548,0.4551,0.4547,0.4556,0.4555,0.4554,0.4556,0.4557,0.4542,0.4549,0.4542,0.4531,0.4528,0.4526,0.4525,0.452,0.4518,0.4541,0.4541,0.4541,0,0.4523,0.452,0.4528,0.4525,0.4526,0.4538,0.4532,0.4534,0.4537,0.4538,0.4543,0.4543,0.4546,0.4541,0.4537,0.4538,0.4537,0.4541,0.4526,0.4524,0.4523,0.4518,0.4516,0.454,0.454,0.454,0.454,0,0.4504,0.4502,0.4497,0.45,0.4501,0.4496,0.4505,0.4505,0.4511,0.4516,0.4513,0.4517,0.4519,0.4518,0.4524,0.4515,0.4518,0.4524,0.4533,0.452,0.4515,0.4514,0.4539,0.4539,0.4539,0.4539,0,0,0.4472,0.4483,0.448,0.4483,0.4489,0.4488,0.4485,0.4487,0.4487,0.449,0.4487,0.4487,0.4494,0.4495,0.4502,0.4499,0.4488,0.4507,0.4507,0.4503,0.448,0.4474,0.4472,0.4493,0.4493,0.4493,0.4479,0,0.4454,0.4449,0.4458,0.4451,0.445,0.4462,0.446,0.4464,0.4469,0.447,0.4476,0.4476,0.4484,0.4485,0.4484,0.449,0.4483,0.4491,0.4492,0.4492,0.449,0.447,0.4463,0.445,0.4478,0.4478,0.4477,0,0.4432,0.4434,0.4427,0.4436,0.4436,0.4433,0.4437,0.4437,0.4442,0.4447,0.4449,0.4457,0.4456,0.4465,0.4464,0.4469,0.4471,0.4474,0.4474,0.4473,0.4483,0.4469,0.4446,0.4444,0.4475,0.4475,0.4475,0,0.4409,0.4411,0.4407,0.4409,0.4419,0.4417,0.4421,0.4428,0.4429,0.4432,0.4434,0.4437,0.4438,0.4441,0.445,0.4456,0.4449,0.4458,0.4452,0.4452,0.4449,0.4449,0.4426,0.4451,0.4451,0.4451,0.4451,0,0.4387,0.4383,0.4398,0.4395,0.4391,0.4402,0.4398,0.4403,0.4409,0.4409,0.442,0.442,0.4433,0.4434,0.4441,0.444,0.444,0.4444,0.4446,0.4443,0.4442,0.4443,0.4444,0.445,0.445,0.445,0.4451,0,0.4361,0.4371,0.4368,0.4378,0.4381,0.4377,0.4386,0.4385,0.4392,0.4392,0.4393,0.4404,0.4406,0.4416,0.442,0.4426,0.4422,0.4426,0.442,0.4421,0.4414,0.4415,0.4391,0.4389,0.4415,0.4414,0.4414,0,0.4346,0.4343,0.4353,0.4354,0.4358,0.4359,0.4361,0.4373,0.4374,0.4382,0.438,0.4384,0.4387,0.439,0.4399,0.4403,0.4407,0.4399,0.4408,0.4405,0.4407,0.4407,0.4407,0.4396,0.4396,0.4396,0.4396,0,0.4318,0.4324,0.4326,0.4331,0.4333,0.4337,0.4342,0.4342,0.4355,0.4357,0.436,0.4363,0.4368,0.4372,0.4378,0.4383,0.4392,0.4393,0.4392,0.4388,0.4385,0.4387,0.4414,0.4393,0.4393,0.4394,0.4394,0.4394,0.4297,0.4295,0.4303,0.4306,0.4311,0.4316,0.4316,0.4324,0.4327,0.4332,0.434,0.4342,0.435,0.4359,0.4364,0.4366,0.4371,0.4369,0.4369,0.4368,0.4366,0.4385,0.4367,0.4367,0.4367,0.4368,0.4368,0,0.427,0.4277,0.4279,0.4286,0.4289,0.4298,0.4304,0.4306,0.4308,0.4315,0.4318,0.4323,0.4327,0.4337,0.4343,0.4343,0.4347,0.4344,0.4343,0.4345,0.4362,0.4362,0.434,0.434,0.434,0.434,0.434,0.434,0.4257,0.4255,0.4262,0.4263,0.427,0.4272,0.4275,0.4281,0.4286,0.4291,0.4294,0.4301,0.431,0.4317,0.4322,0.4325,0.4326,0.4321,0.4326,0.4341,0.4343,0.4346,0.4346,0.4322,0.4322,0.4309,0.4308,0.4308]}]]